Volver al catálogo

NOAA 16 DEB

ActivoSSO
NORAD 41065·DEBRIS·🇺🇸 United States

Lanzado Sep 21, 2000 desde Vandenberg Space Force Base

Loading…

Próximos Pases (próximas 24 horas)

TLE

ActualizadoSource: Space-Track

Época: Sep 13, 2026, 21:02 UTC

1 41065U 00055Y   26256.87646291  .00001463  00000-0  67541-3 0  9990
2 41065  98.6234 306.8533 0012126 186.2279 173.8750 14.22454987557289

Sigue NOAA 16 DEB en tiempo real con AllMySat

Download on the App Store